Somerville, NJ

6:37 PM EST on December 16, 2017 (GMT -0500)
Somerset

Weather History for KSMQ - January, 2012

Change the Weather History Date:

Monday, January 9, 2012

  Actual Average Record
Temperature  
Mean Temperature 32 °F -  
Max Temperature 41 °F 33 °F 64 °F (1937)
Min Temperature 24 °F 17 °F -10 °F (1981)
Degree Days  
Heating Degree Days 32    
Moisture  
Dew Point 19 °F    
Average Humidity 63    
Maximum Humidity 84    
Minimum Humidity 35    
Precipitation  
Precipitation 0.00 in - - ()
Sea Level Pressure  
Sea Level Pressure 30.20 in    
Wind  
Wind Speed 1 mph (South)    
Max Wind Speed 6 mph    
Max Gust Speed -    
Visibility 10 miles    
Events      
Averages and records for this station are not official NWS values.
T = Trace of Precipitation, MM = Missing Value Source: NWS Daily Summary

Daily Weather History Graph

Daily Weather History Graph

Search for Another Location

Airport or City:

Trip Planner

Search our weather history database for the weather conditions in past years. The results will help you decide how hot, cold, wet, or windy it might be!

Date:

Astronomy

Jan. 09, 2012 Rise Set
Actual Time 7:22 AM EST 4:49 PM EST
Civil Twilight 6:51 AM EST 5:19 PM EST
Nautical Twilight 6:17 AM EST 5:53 PM EST
Astronomical Twilight 5:44 AM EST 6:26 PM EST
Moon 5:33 PM EST (1/9) 7:20 AM EST (1/9)
Length of Visible Light 10h 27m
Length of Day
9h 27m
Full, 100% of the Moon is Illuminated
Jan 9
Full
Jan 16
Last Quarter
Jan 23
New
Jan 30
First Quarter
Feb 7
Full

Hourly Weather History & Observations

Time (EST) Temp. Windchill Dew Point Humidity Pressure Visibility Wind Dir Wind Speed Gust Speed Precip Events Conditions
12:53 AM 25.0 °F - 18.0 °F 75% 30.32 in 10.0 mi Calm Calm - N/A   Clear
1:53 AM 24.1 °F 19.7 °F 18.0 °F 77% 30.33 in 10.0 mi NW 3.5 mph - N/A   Clear
2:53 AM 24.1 °F - 19.0 °F 81% 30.32 in 10.0 mi Calm Calm - N/A   Clear
3:53 AM 24.1 °F - 19.9 °F 84% 30.32 in 10.0 mi Calm Calm - N/A   Scattered Clouds
4:53 AM 25.0 °F - 19.9 °F 81% 30.31 in 10.0 mi Calm Calm - N/A   Mostly Cloudy
5:53 AM 25.0 °F - 19.9 °F 81% 30.32 in 10.0 mi Calm Calm - N/A   Clear
6:53 AM 25.0 °F - 19.9 °F 81% 30.32 in 10.0 mi Calm Calm - N/A   Clear
7:53 AM 24.1 °F - 19.9 °F 84% 30.31 in 10.0 mi Calm Calm - N/A   Clear
8:53 AM 27.0 °F - 21.9 °F 81% 30.33 in 10.0 mi Calm Calm - N/A   Clear
9:53 AM 30.9 °F - 21.0 °F 67% 30.32 in 10.0 mi Calm Calm - N/A   Clear
10:53 AM 33.8 °F - 19.4 °F 56% 30.30 in 10.0 mi Calm Calm - N/A   Clear
11:53 AM 36.0 °F 33.3 °F 16.0 °F 44% 30.25 in 10.0 mi SSE 3.5 mph - N/A   Clear
12:53 PM 39.0 °F 34.8 °F 14.0 °F 36% 30.22 in 10.0 mi SSE 5.8 mph - N/A   Clear
1:53 PM 41.0 °F 38.0 °F 15.1 °F 35% 30.18 in 10.0 mi South 4.6 mph - N/A   Clear
2:53 PM 41.0 °F 39.0 °F 15.1 °F 35% 30.16 in 10.0 mi Variable 3.5 mph - N/A   Clear
3:53 PM 39.9 °F 35.8 °F 15.1 °F 36% 30.15 in 10.0 mi SSE 5.8 mph - N/A   Clear
4:53 PM 37.0 °F - 16.0 °F 42% 30.13 in 10.0 mi Calm Calm - N/A   Clear
5:53 PM 33.1 °F - 17.1 °F 52% 30.12 in 10.0 mi Calm Calm - N/A   Clear
6:53 PM 30.0 °F - 17.1 °F 59% 30.10 in 10.0 mi Calm Calm - N/A   Partly Cloudy
7:53 PM 32.0 °F - 19.9 °F 61% 30.09 in 10.0 mi Calm Calm - N/A   Overcast
8:53 PM 32.0 °F - 21.9 °F 66% 30.07 in 10.0 mi Calm Calm - N/A   Overcast
9:53 PM 32.0 °F - 23.0 °F 69% 30.05 in 10.0 mi Calm Calm - N/A   Overcast
10:53 PM 33.1 °F - 21.9 °F 64% 30.02 in 10.0 mi Calm Calm - N/A   Overcast
11:44 PM 33.8 °F - 23.0 °F 65% 29.98 in 10.0 mi Calm Calm - N/A   Overcast
11:53 PM 34.0 °F - 21.9 °F 61% 29.99 in 10.0 mi Calm Calm - N/A   Overcast